Flag for U.S.A. Weather past 2 weeks in Norwalk, California, U.S.A.

Now
78 °F

Sunny.


Feels Like: 80 °F
Forecast: 66 / 87 °F
Wind: 3 mph from Southwest

Location: Fullerton Municipal Airport

Current Time: Jun 30, 2015 at 10:53:48 AM

Latest Report: Jun 30, 2015 at 9:53 AM


Visibility: 10 mi

Pressure: 29.88 "Hg

Humidity: 60%

Dew point: 63 °F

Location of NorwalkLocation

Historic Weather in Norwalk — Graph

°F

Norwalk temperature yesterday

Maximum temperature yesterday: 87 °F (at 1:53 PM)
Minimum temperature yesterday: 68 °F (at 3:53 AM)
Average temperature yesterday: 75 °F

Past Weeks' High & Low Weather Summary

 TemperatureHumidityPressure
High94 °F (Jun 28, 2:53 PM)97% (Jun 19, 6:53 AM)30.01 "Hg (Jun 19, 6:53 AM)
Low60 °F (Jun 19, 5:53 AM)31% (Jun 19, 3:53 PM)29.78 "Hg (Jun 19, 6:53 PM)
Average73 °F66%29.89 "Hg
* Reported Jun 15 9:53 AM — Jun 30 9:53 AM, Norwalk, Weather by CustomWeather, © 2015

Note: Actual official high and low records may vary slightly from our data, if they occured in-between our weather recording intervals... More about our weather records

Advertising

Norwalk weather history for previous 24 hours

 ConditionsComfort  
Time TempWeatherWind HumidityBarometerVisibility
9:53 AM
Tue, Jun 30
78 °FSunny.3 mph60%29.88 "Hg10 mi
8:53 AM75 °FSunny.No wind69%29.88 "Hg10 mi
7:53 AM71 °FSunny.3 mph76%29.89 "Hg10 mi
6:53 AM69 °FSunny.3 mph81%29.87 "Hg10 mi
5:53 AM69 °FClear.No wind81%29.86 "Hg10 mi
4:53 AM68 °FClear.No wind82%29.85 "Hg10 mi
3:53 AM69 °FClear.3 mph79%29.86 "Hg10 mi
2:53 AM69 °FClear.No wind79%29.86 "Hg10 mi
1:53 AM70 °FClear.No wind73%29.87 "Hg10 mi
12:53 AM71 °FClear.No wind71%29.87 "Hg10 mi
11:53 PM
Mon, Jun 29
71 °FClear.No wind73%29.89 "Hg10 mi
10:53 PM71 °FClear.5 mph71%29.90 "Hg10 mi
9:53 PM72 °FClear.No wind66%29.89 "Hg10 mi
8:53 PM73 °FSunny.5 mph66%29.87 "Hg10 mi
7:53 PM76 °FSunny.7 mph58%29.85 "Hg10 mi
6:53 PM77 °FSunny.7 mph54%29.84 "Hg10 mi
5:53 PM79 °FSunny.7 mph52%29.84 "Hg10 mi
4:53 PM80 °FSunny.10 mph54%29.84 "Hg10 mi
3:53 PM80 °FSunny.9 mph52%29.85 "Hg10 mi
2:53 PM86 °FSunny.8 mph40%29.85 "Hg10 mi
1:53 PM87 °FSunny.No wind37%29.86 "Hg10 mi
12:53 PM84 °FSunny.8 mph46%29.88 "Hg10 mi
11:53 AM81 °FSunny.6 mph51%29.89 "Hg10 mi
10:53 AM82 °FSunny.5 mph49%29.89 "Hg10 mi
Weather by CustomWeather, © 2015

See weather overviewHow to use our weather pages